DW1415 Weather Reports


Display with metric or nautical units.
time (UTC)temp
F
wind
direction
speed
MPH
gust
MPH
rain 1hr
in
rain 24hr
in
rain mn
in
humidity
%
barometer
mb
20181216102004 38 295 7.0 15.0 0.00 0.00 0.00 86 1018.9
20181216101504 38 323 2.0 13.0 0.00 0.00 0.00 86 1019.3
20181216101004 38 307 2.0 13.0 0.00 0.00 0.00 85 1019.6
20181216100503 38 317 2.0 9.0 0.00 0.00 0.00 85 1019.7
20181216100003 39 303 1.0 9.0 0.00 0.00 0.00 85 1019.9
20181216095505 39 307 2.0 7.0 0.00 0.00 0.00 85 1020.3
20181216095003 39 315 1.0 7.0 0.00 0.00 0.00 85 1020.3
20181216094504 39 308 0.0 7.0 0.00 0.00 0.00 84 1020.3
20181216094004 39 331 2.0 7.0 0.00 0.00 0.00 84 1020.2
20181216093504 39 314 1.0 8.0 0.00 0.00 0.00 84 1020.3
20181216093004 39 319 3.0 8.0 0.00 0.00 0.00 84 1019.9
20181216092504 39 276 3.0 9.0 0.00 0.00 0.00 83 1019.6
20181216092004 39 252 1.0 9.0 0.00 0.00 0.00 83 1019.6
20181216091503 39 287 2.0 10.0 0.00 0.00 0.00 83 1019.6
20181216091004 39 315 3.0 10.0 0.00 0.00 0.00 82 1019.5
20181216090504 39 309 4.0 7.0 0.00 0.00 0.00 82 1019.5
20181216090005 39 313 2.0 10.0 0.00 0.00 0.00 82 1019.3
20181216085503 39 297 3.0 10.0 0.00 0.00 0.00 82 1019.3
20181216085004 40 290 3.0 10.0 0.00 0.00 0.00 81 1019.5
20181216084504 40 305 5.0 10.0 0.00 0.00 0.00 80 1019.6
20181216084003 40 309 5.0 12.0 0.00 0.00 0.00 79 1019.6
20181216083504 40 349 2.0 14.0 0.00 0.00 0.00 77 1019.6
20181216083004 41 305 6.0 14.0 0.00 0.00 0.00 76 1019.6
20181216082504 41 300 5.0 9.0 0.00 0.00 0.00 74 1019.9
20181216082004 42 5 4.0 7.0 0.00 0.00 0.00 71 1020.0
20181216080504 44 304 4.0 8.0 0.00 0.00 0.00 66 1020.6
20181216080003 44 323 3.0 8.0 0.00 0.00 0.00 66 1020.6
20181216075504 44 288 4.0 10.0 0.00 0.00 0.00 66 1020.6
20181216075004 44 321 2.0 10.0 0.00 0.00 0.00 66 1020.6
20181216074504 44 319 3.0 14.0 0.00 0.00 0.00 65 1020.3
20181216074004 45 304 6.0 14.0 0.00 0.00 0.00 66 1019.9
20181216073504 45 320 5.0 9.0 0.00 0.00 0.00 66 1020.3
20181216073004 45 334 3.0 12.0 0.00 0.00 0.00 66 1020.3
20181216072504 45 304 4.0 12.0 0.00 0.00 0.00 66 1020.3
20181216072004 45 331 1.0 10.0 0.00 0.00 0.00 66 1020.1
20181216071504 45 327 3.0 10.0 0.00 0.00 0.00 66 1019.9
20181216071004 45 309 6.0 9.0 0.00 0.00 0.00 67 1019.8
20181216070504 45 282 1.0 8.0 0.00 0.00 0.00 67 1019.7
20181216070004 45 295 3.0 8.0 0.00 0.00 0.00 67 1019.9
20181216065504 45 4 2.0 10.0 0.00 0.00 0.00 67 1019.9
20181216065005 45 236 3.0 14.0 0.00 0.00 0.00 67 1019.7
20181216064504 45 340 6.0 14.0 0.00 0.00 0.00 66 1019.6
20181216064004 45 328 6.0 13.0 0.00 0.00 0.00 67 1019.6
20181216063503 45 308 5.0 12.0 0.00 0.00 0.00 68 1019.6
20181216063013 45 297 4.0 18.0 0.00 0.00 0.00 68 1019.5
20181216062503 45 285 6.0 18.0 0.00 0.00 0.00 68 1019.3
20181216062004 46 296 6.0 13.0 0.00 0.00 0.00 69 1019.3
20181216061504 46 271 6.0 13.0 0.00 0.00 0.00 69 1019.3
20181216061004 46 311 5.0 9.0 0.00 0.00 0.00 69 1019.3
20181216060504 46 317 6.0 9.0 0.00 0.00 0.00 69 1019.6
20181216060004 46 286 5.0 20.0 0.00 0.00 0.00 69 1019.6
20181216055504 46 303 5.0 20.0 0.00 0.00 0.00 69 1019.7
20181216055004 46 298 6.0 14.0 0.00 0.00 0.00 69 1019.6
20181216054504 46 310 5.0 15.0 0.00 0.00 0.00 69 1019.6
20181216054005 46 326 8.0 20.0 0.00 0.00 0.00 69 1019.9
20181216053504 46 295 6.0 20.0 0.00 0.00 0.00 69 1019.9
20181216053004 47 331 5.0 20.0 0.00 0.00 0.00 69 1019.6
20181216052504 47 0 5.0 13.0 0.00 0.00 0.00 69 1019.3
20181216052004 47 295 5.0 16.0 0.00 0.00 0.00 69 1019.6
20181216051504 47 320 6.0 16.0 0.00 0.00 0.00 69 1019.3
20181216051004 47 339 6.0 12.0 0.00 0.00 0.00 69 1019.6
20181216050504 47 336 5.0 8.0 0.00 0.00 0.00 69 1019.6
20181216050004 47 315 4.0 10.0 0.00 0.00 0.00 69 1019.6
20181216045505 47 315 5.0 14.0 0.00 0.00 0.00 70 1019.6
20181216045004 48 303 8.0 14.0 0.00 0.00 0.00 70 1019.9
20181216044504 48 325 6.0 16.0 0.00 0.00 0.00 70 1019.9
20181216044003 48 341 6.0 16.0 0.00 0.00 0.00 71 1019.9
20181216043503 48 312 7.0 16.0 0.00 0.00 0.00 71 1020.3
20181216043004 48 324 7.0 14.0 0.00 0.00 0.00 71 1020.3
20181216042503 48 315 4.0 12.0 0.00 0.00 0.00 72 1020.3
20181216042004 48 308 3.0 12.0 0.00 0.00 0.00 72 1020.6
20181216041505 48 321 4.0 12.0 0.00 0.00 0.00 72 1020.3
20181216041004 48 317 3.0 9.0 0.00 0.00 0.00 72 1020.3
20181216040504 48 300 6.0 14.0 0.00 0.00 0.00 72 1020.5
20181216040004 48 311 3.0 14.0 0.00 0.00 0.00 73 1020.3
20181216035504 48 303 3.0 9.0 0.00 0.00 0.00 72 1020.3
20181216035004 47 298 2.0 9.0 0.00 0.00 0.00 72 1020.3
20181216034504 48 312 3.0 9.0 0.00 0.00 0.00 72 1020.3
20181216034004 48 315 3.0 9.0 0.00 0.00 0.00 72 1020.3
20181216033504 48 300 3.0 9.0 0.00 0.00 0.00 72 1020.3
20181216033005 48 338 2.0 8.0 0.00 0.00 0.00 73 1020.6
20181216032503 48 217 1.0 8.0 0.00 0.00 0.00 73 1020.3
20181216032005 48 323 3.0 7.0 0.00 0.00 0.00 73 1020.3
20181216031504 48 307 2.0 6.0 0.00 0.00 0.00 73 1020.3
20181216031004 48 292 0.0 3.0 0.00 0.00 0.00 73 1020.6
20181216030504 48 208 0.0 6.0 0.00 0.00 0.00 73 1020.9
20181216030004 48 303 1.0 6.0 0.00 0.00 0.00 73 1020.9
20181216025504 48 250 1.0 3.0 0.00 0.00 0.00 73 1020.9
20181216025004 48 301 1.0 3.0 0.00 0.00 0.00 73 1020.6
20181216024504 48 284 0.0 5.0 0.00 0.00 0.00 73 1020.6
20181216024004 48 247 0.0 5.0 0.00 0.00 0.00 74 1020.6
20181216023503 48 192 0.0 5.0 0.00 0.00 0.00 74 1020.9
20181216023004 48 247 1.0 5.0 0.00 0.00 0.00 74 1020.6
20181216022504 48 257 1.0 3.0 0.00 0.00 0.00 74 1020.6
20181216022004 48 127 1.0 6.0 0.00 0.00 0.00 75 1020.6
20181216021505 48 248 1.0 6.0 0.00 0.00 0.00 75 1020.6
20181216021004 48 277 0.0 7.0 0.00 0.00 0.00 75 1020.9
20181216020504 48 267 2.0 7.0 0.00 0.00 0.00 75 1020.9
20181216020004 48 309 1.0 7.0 0.00 0.00 0.00 75 1021.1
20181216015503 48 270 1.0 7.0 0.00 0.00 0.00 75 1021.1
20181216015004 48 293 0.0 5.0 0.00 0.00 0.00 75 1020.9
20181216014504 48 254 1.0 7.0 0.00 0.00 0.00 75 1020.9
20181216014004 48 212 1.0 7.0 0.00 0.00 0.00 75 1020.9
20181216013504 48 182 1.0 7.0 0.00 0.00 0.00 75 1021.3
20181216013004 48 261 2.0 5.0 0.00 0.00 0.00 75 1021.3
20181216012504 48 188 2.0 5.0 0.00 0.00 0.00 75 1020.9
20181216012004 48 280 1.0 7.0 0.00 0.00 0.00 75 1021.3
20181216011504 49 330 0.0 7.0 0.00 0.00 0.00 75 1020.9
20181216011003 49 256 1.0 5.0 0.00 0.00 0.00 75 1020.9
20181216010504 49 246 1.0 5.0 0.00 0.00 0.00 75 1021.3
20181216010004 49 314 0.0 5.0 0.00 0.00 0.00 75 1021.3
20181216005503 49 223 0.0 6.0 0.00 0.00 0.00 75 1021.3
20181216005004 49 292 0.0 6.0 0.00 0.00 0.00 75 1021.0
20181216004504 49 273 1.0 6.0 0.00 0.00 0.00 75 1020.9
20181216004004 49 253 1.0 5.0 0.00 0.00 0.00 75 1020.6
20181216003503 49 248 1.0 6.0 0.00 0.00 0.00 75 1020.6
20181216003004 49 352 0.0 6.0 0.00 0.00 0.00 75 1020.6
20181216002504 49 313 1.0 6.0 0.00 0.00 0.00 75 1020.3
20181216002003 49 292 1.0 5.0 0.00 0.00 0.00 75 1020.6
20181216001504 49 291 0.0 2.0 0.00 0.00 0.00 75 1020.6
20181216001005 49 218 1.0 7.0 0.00 0.00 0.00 75 1020.9
20181216000504 49 201 2.0 7.0 0.00 0.00 0.00 75 1020.9
20181216000004 49 220 1.0 5.0 0.00 0.00 0.00 75 1020.9
20181215235504 49 245 1.0 5.0 0.00 0.00 0.00 75 1020.9
20181215235004 49 225 1.0 5.0 0.00 0.00 0.00 75 1020.9
20181215234504 49 265 0.0 5.0 0.00 0.00 0.00 75 1020.6
20181215234003 49 269 1.0 3.0 0.00 0.00 0.00 75 1020.6
20181215233504 49 240 0.0 3.0 0.00 0.00 0.00 75 1020.6
20181215233005 49 225 0.0 5.0 0.00 0.00 0.00 75 1020.6
20181215232504 49 248 0.0 5.0 0.00 0.00 0.00 76 1020.3
20181215232004 49 292 1.0 3.0 0.00 0.00 0.00 75 1019.7
20181215231504 49 270 2.0 8.0 0.00 0.00 0.00 75 1019.6
20181215231005 49 270 0.0 8.0 0.00 0.00 0.00 76 1019.9
20181215230504 49 202 1.0 3.0 0.00 0.00 0.00 76 1019.9
20181215230004 49 292 0.0 3.0 0.00 0.00 0.00 76 1020.3
20181215225504 49 225 0.0 3.0 0.00 0.00 0.00 77 1019.9
20181215225004 49 292 0.0 3.0 0.00 0.00 0.00 77 1019.6
20181215224503 49 256 0.0 6.0 0.00 0.00 0.00 77 1019.6
20181215224005 49 248 1.0 6.0 0.00 0.00 0.00 77 1019.4
20181215223504 49 289 1.0 5.0 0.00 0.00 0.00 78 1019.2
20181215223004 49 292 1.0 5.0 0.00 0.00 0.00 78 1019.6
20181215222504 49 252 0.0 3.0 0.00 0.00 0.00 78 1019.9
20181215222004 49 266 0.0 1.0 0.00 0.00 0.00 78 1019.9
20181215221504 49 248 0.0 1.0 0.00 0.00 0.00 78 1020.3
20181215221004 49 248 0.0 1.0 0.00 0.00 0.00 78 1020.6
20181215220504 49 292 0.0 3.0 0.00 0.00 0.00 79 1019.9
20181215220004 49 292 0.0 3.0 0.00 0.00 0.00 79 1019.6
20181215215503 49 292 0.0 2.0 0.00 0.00 0.00 79 1019.6
20181215215004 49 315 0.0 7.0 0.00 0.00 0.00 80 1019.6
20181215214504 49 315 2.0 7.0 0.00 0.00 0.00 80 1019.5
20181215214004 49 292 0.0 7.0 0.00 0.00 0.00 80 1019.3
20181215213503 49 292 0.0 7.0 0.00 0.00 0.00 80 1018.9
20181215213005 49 283 2.0 7.0 0.00 0.00 0.00 80 1018.6
20181215212504 50 282 1.0 6.0 0.00 0.00 0.00 80 1018.6
20181215212005 50 198 1.0 6.0 0.00 0.00 0.00 80 1018.6
20181215211505 50 315 0.0 5.0 0.00 0.00 0.00 80 1018.6
20181215211004 50 301 1.0 5.0 0.00 0.00 0.00 80 1018.9
20181215210504 50 288 1.0 5.0 0.00 0.00 0.00 80 1018.6
20181215210005 50 292 1.0 8.0 0.00 0.00 0.00 80 1018.6
20181215205504 50 285 1.0 8.0 0.00 0.00 0.00 80 1018.9
20181215205004 50 311 1.0 6.0 0.00 0.00 0.00 80 1019.3
20181215204504 50 277 2.0 6.0 0.00 0.00 0.00 80 1019.6
20181215204004 51 271 1.0 5.0 0.00 0.00 0.00 80 1019.6
20181215203504 51 305 1.0 5.0 0.00 0.00 0.00 80 1019.6
20181215203004 51 258 0.0 6.0 0.00 0.00 0.00 80 1019.6
20181215202504 51 177 2.0 6.0 0.00 0.00 0.00 80 1019.6
20181215202005 51 190 1.0 5.0 0.00 0.00 0.00 80 1019.6
20181215201504 51 241 1.0 5.0 0.00 0.00 0.00 80 1019.9
20181215201004 51 313 0.0 6.0 0.00 0.00 0.00 81 1019.6
20181215200504 51 312 2.0 6.0 0.00 0.00 0.00 81 1019.6
20181215200004 51 202 0.0 5.0 0.00 0.00 0.00 81 1019.6
20181215195503 51 248 0.0 6.0 0.00 0.00 0.00 81 1019.6
20181215195004 51 269 1.0 6.0 0.00 0.00 0.00 81 1019.7
20181215194504 51 270 0.0 0.0 0.00 0.00 0.00 81 1019.6
20181215194004 51 248 0.0 3.0 0.00 0.00 0.00 81 1019.6
20181215193505 51 248 0.0 3.0 0.00 0.00 0.00 81 1019.9
20181215193005 51 287 0.0 7.0 0.00 0.00 0.00 81 1019.9
20181215192504 51 292 0.0 7.0 0.00 0.00 0.00 82 1019.9
20181215192004 51 311 1.0 5.0 0.00 0.00 0.00 82 1020.3
20181215191504 51 247 0.0 5.0 0.00 0.00 0.00 82 1020.3
20181215191004 51 292 0.0 2.0 0.00 0.00 0.00 82 1020.3
20181215190504 51 270 0.0 3.0 0.00 0.00 0.00 83 1020.3
20181215190004 51 292 0.0 3.0 0.00 0.00 0.00 83 1020.6
20181215185503 51 226 0.0 2.0 0.00 0.00 0.00 84 1020.3
20181215185004 51 292 0.0 2.0 0.00 0.00 0.00 85 1020.3
20181215184505 51 181 0.0 0.0 0.00 0.00 0.00 85 1020.6
20181215184004 51 270 0.0 0.0 0.00 0.00 0.00 86 1020.4
20181215183504 51 270 0.0 2.0 0.00 0.00 0.00 85 1020.6
20181215183005 51 264 0.0 2.0 0.00 0.00 0.00 86 1020.6
20181215182504 51 236 0.0 2.0 0.00 0.00 0.00 87 1020.6
20181215182005 51 248 0.0 0.0 0.00 0.00 0.00 87 1020.6
20181215181504 51 234 0.0 6.0 0.00 0.00 0.00 88 1019.9
20181215181005 51 225 1.0 6.0 0.00 0.00 0.00 88 1020.3
20181215180504 51 292 0.0 6.0 0.00 0.00 0.00 88 1020.3
20181215180004 50 266 0.0 2.0 0.00 0.00 0.00 88 1020.3
20181215175505 50 276 0.0 2.0 0.00 0.00 0.00 88 1020.3
20181215175004 50 284 0.0 0.0 0.00 0.00 0.00 88 1020.3
20181215174505 50 292 0.0 2.0 0.00 0.00 0.00 89 1020.4
20181215174004 50 286 0.0 2.0 0.00 0.00 0.00 89 1020.6
20181215173504 50 180 0.0 2.0 0.00 0.00 0.00 89 1020.6
20181215173004 50 282 0.0 3.0 0.00 0.00 0.00 90 1020.6
20181215172504 50 265 0.0 3.0 0.00 0.00 0.00 90 1020.6
20181215172004 50 202 0.0 3.0 0.00 0.00 0.00 90 1020.6
20181215171504 49 178 1.0 3.0 0.00 0.00 0.00 90 1020.9
20181215171004 49 227 0.0 1.0 0.00 0.00 0.00 90 1020.6
20181215170503 49 243 0.0 1.0 0.00 0.00 0.00 90 1020.9
20181215170004 49 225 0.0 3.0 0.00 0.00 0.00 90 1020.9
20181215165504 49 292 0.0 5.0 0.00 0.00 0.00 90 1020.9
20181215165004 49 292 1.0 5.0 0.00 0.00 0.00 90 1020.9
20181215164504 49 287 1.0 5.0 0.00 0.00 0.00 90 1020.9
20181215164004 49 292 1.0 5.0 0.00 0.00 0.00 90 1020.9
20181215163504 49 315 2.0 7.0 0.00 0.00 0.00 90 1021.3
20181215163004 49 315 1.0 7.0 0.00 0.00 0.00 90 1021.3
20181215162503 49 292 0.0 2.0 0.00 0.00 0.00 90 1021.3
20181215162004 48 292 0.0 6.0 0.00 0.00 0.00 90 1021.3
20181215161504 48 292 0.0 6.0 0.00 0.00 0.00 90 1021.3
20181215161004 48 292 1.0 6.0 0.00 0.00 0.00 90 1021.3
20181215160504 48 270 1.0 3.0 0.00 0.00 0.00 90 1021.6
20181215160004 48 248 1.0 2.0 0.00 0.00 0.00 90 1021.7
20181215155504 47 270 0.0 2.0 0.00 0.00 0.00 90 1022.0
20181215155004 47 270 0.0 5.0 0.00 0.00 0.00 90 1022.0
20181215154504 47 288 1.0 5.0 0.00 0.00 0.00 90 1022.0
20181215154004 47 315 1.0 3.0 0.00 0.00 0.00 90 1022.0
20181215153503 47 292 1.0 3.0 0.00 0.00 0.00 90 1022.0
20181215153004 47 270 0.0 0.0 0.00 0.00 0.00 90 1022.3
20181215152504 47 270 0.0 0.0 0.00 0.00 0.00 90 1022.3
20181215152004 47 270 0.0 0.0 0.00 0.00 0.00 90 1022.3
20181215151504 47 270 0.0 2.0 0.00 0.00 0.00 90 1022.6
20181215151004 47 270 1.0 5.0 0.00 0.00 0.00 90 1022.6
20181215150504 47 270 0.0 5.0 0.00 0.00 0.00 90 1022.6
20181215150004 47 292 1.0 6.0 0.00 0.00 0.00 90 1023.0
20181215145504 47 292 1.0 6.0 0.00 0.00 0.00 90 1023.0
20181215145005 47 334 1.0 7.0 0.00 0.00 0.00 90 1023.0
20181215144504 47 230 1.0 9.0 0.00 0.00 0.00 91 1023.3
20181215144004 47 226 3.0 9.0 0.00 0.00 0.00 91 1023.3
20181215143504 47 273 1.0 5.0 0.00 0.00 0.00 91 1023.3
20181215143004 47 214 0.0 3.0 0.00 0.00 0.00 91 1023.0
20181215142504 47 270 0.0 1.0 0.00 0.00 0.00 91 1023.0
20181215142004 47 205 0.0 1.0 0.00 0.00 0.00 91 1023.0
20181215141504 47 208 0.0 1.0 0.00 0.00 0.00 91 1023.3
20181215141004 47 225 0.0 5.0 0.00 0.00 0.00 91 1023.2
20181215140504 47 292 1.0 5.0 0.00 0.00 0.00 91 1023.3
20181215140004 47 161 0.0 3.0 0.00 0.00 0.00 91 1023.3
20181215135503 47 271 0.0 0.0 0.00 0.00 0.00 91 1023.0
20181215135004 47 288 0.0 0.0 0.00 0.00 0.00 91 1023.0
20181215134505 47 286 0.0 0.0 0.00 0.00 0.00 91 1023.0
20181215134009 47 280 0.0 0.0 0.00 0.00 0.00 91 1023.0
20181215133509 47 270 0.0 0.0 0.00 0.00 0.00 91 1023.0
20181215133004 46 270 0.0 0.0 0.00 0.00 0.00 91 1022.6
20181215132504 46 270 0.0 0.0 0.00 0.00 0.00 91 1022.6
20181215132005 46 225 0.0 3.0 0.00 0.00 0.00 91 1023.0
20181215131505 47 202 0.0 7.0 0.00 0.00 0.00 91 1023.0
20181215131004 47 248 1.0 7.0 0.00 0.00 0.00 91 1023.0
20181215130504 47 240 0.0 2.0 0.00 0.00 0.00 91 1022.6
20181215130004 46 246 0.0 2.0 0.00 0.00 0.00 91 1022.6
20181215125504 46 243 0.0 2.0 0.00 0.00 0.00 91 1022.4
20181215125004 46 225 0.0 2.0 0.00 0.00 0.00 91 1022.3
20181215124504 46 229 1.0 5.0 0.00 0.00 0.00 91 1022.6
20181215124004 46 225 0.0 7.0 0.00 0.00 0.00 91 1022.6
20181215123503 46 206 1.0 7.0 0.00 0.00 0.00 91 1022.6
20181215123004 46 202 0.0 3.0 0.00 0.00 0.00 91 1022.3
20181215122504 46 201 0.0 3.0 0.00 0.00 0.00 91 1022.3
20181215122004 46 225 0.0 0.0 0.00 0.00 0.00 91 1022.3
20181215121503 46 270 0.0 0.0 0.00 0.00 0.00 91 1022.3
20181215121004 46 292 0.0 0.0 0.00 0.00 0.00 91 1022.3
20181215120504 46 292 0.0 0.0 0.00 0.00 0.00 91 1022.3
20181215120005 46 292 0.0 0.0 0.00 0.00 0.00 91 1022.3
20181215115503 46 292 0.0 0.0 0.00 0.00 0.00 91 1022.4
20181215115004 46 292 0.0 0.0 0.00 0.00 0.00 91 1022.5
20181215114504 46 292 0.0 0.0 0.00 0.00 0.00 91 1022.6
20181215114005 46 292 0.0 0.0 0.00 0.00 0.00 91 1022.6
20181215113504 46 292 0.0 0.0 0.00 0.00 0.00 91 1022.6
20181215113004 46 270 0.0 0.0 0.00 0.00 0.00 91 1022.6
20181215112504 46 270 0.0 0.0 0.00 0.00 0.00 91 1023.0
20181215112004 46 270 0.0 0.0 0.00 0.00 0.00 91 1023.1
20181215111504 46 270 0.0 0.0 0.00 0.00 0.00 91 1023.3
20181215111004 46 208 0.0 0.0 0.00 0.00 0.00 91 1023.3
20181215110504 47 255 0.0 8.0 0.00 0.00 0.00 91 1023.3
20181215110004 47 195 0.0 8.0 0.00 0.00 0.00 91 1023.3
20181215105504 47 196 0.0 5.0 0.00 0.00 0.00 91 1023.0
20181215105004 47 196 1.0 5.0 0.00 0.00 0.00 91 1023.1
20181215104504 47 196 0.0 5.0 0.00 0.00 0.00 90 1023.2
20181215104006 47 225 0.0 0.0 0.00 0.00 0.00 90 1023.0
20181215103505 47 202 0.0 0.0 0.00 0.00 0.00 90 1023.0
20181215103003 47 202 0.0 0.0 0.00 0.00 0.00 90 1023.0
20181215102504 47 202 0.0 0.0 0.00 0.00 0.00 90 1022.6